Regional Weather Roundup
Issued by NWS

Home | Current Version | Previous Version | Graphics & Text | Print | Product List | Glossary On
Versions: 1 2 3 4 5 6 7 8 9 10 11 12 13 14 15 16 17 18 19 20 21 22 23 24 25 26 27 28 29 30 31 32 33 34 35 36 37 38 39 40 41 42 43 44 45 46 47 48 49 50
000
ASUS43 KIND 250809
RWRIN

WEATHER ROUNDUP FOR INDIANA
NATIONAL WEATHER SERVICE INDIANAPOLIS IN
400 AM EDT WED MAY 25 2016

NOTE: "FAIR" INDICATES FEW OR NO CLOUDS BELOW 12,000 FEET WITH NO
SIGNIFICANT WEATHER AND/OR OBSTRUCTIONS TO VISIBILITY.

* - STATION DOES NOT REPORT WEATHER SUCH AS PRECIPITATION OR FOG.

+ - STATION NOT QUALITY CONTROLLED BY THE NATIONAL WEATHER SERVICE.
    USE DATA WITH CAUTION...ESPECIALLY DEWPOINT AND RELATIVE
    HUMIDITY OBSERVATIONS.

INZ001>003-010>013-019-020-250900-
NORTHWEST INDIANA

CITY           SKY/WX    TMP DP  RH WIND       PRES   REMARKS
GARY /AIRPORT/ MOCLDY    73  64  74 S3        30.01F
KNOX *+        CLOUDY    64  45  48 S5        30.03R
LA PORTE +     CLOUDY    69  56  64 SW5       30.04R
MICHIGAN CITY+ CLOUDY    68  55  64 S5        30.02S
MONTICELLO +   CLOUDY    67  53  60 CALM      30.03S
RENSSELAER +   CLOUDY    68  54  60 S5        30.03S
VALPARAISO     CLOUDY    67  56  67 S3        30.03S

$$

LMZ046-743>745-250900-
SOUTHERN LAKE MICHIGAN

STATION/POSITION TIME  TEMP    WIND        PRES    WAVE
                       AIR SEA DIR/SP/G            HT
                 (UTC) (F)     (DEG/KT/KT) (MB)    (FT)
BURNS HARBOR     0700   72     200/ 13/ 17 1016.6R
MICHIGAN CITY    0700   71     170/ 10/ 11   N/A
5NW MICH CITY    0800   63 57  200/  8/  8   N/A     1

$$

INZ004-005-014>016-021>024-250900-
NORTH CENTRAL INDIANA

CITY           SKY/WX    TMP DP  RH WIND       PRES   REMARKS
GOSHEN         MOCLDY    65  52  62 S5        30.04R
LOGANSPORT +   CLOUDY    64  54  68 S5        30.05S
ROCHESTER +    CLOUDY    70  55  60 S5        30.05S
SOUTH BEND     CLOUDY    66  54  65 SW6       30.04R
WARSAW +       CLOUDY    66  54  63 SW3       30.05R

$$

INZ006>009-017-018-025>027-250900-
NORTHEAST INDIANA

CITY           SKY/WX    TMP DP  RH WIND       PRES   REMARKS
ANGOLA *+      CLEAR     57  54  88 CALM      30.05R
AUBURN +       CLOUDY    63  50  63 S3        30.06R
FORT WAYNE     CLOUDY    62  51  67 S3        30.07R
HUNTINGTON +   CLOUDY   N/A N/A N/A CALM      30.07R

$$

INZ028-029-035-036-043>045-051>053-250900-
WEST CENTRAL INDIANA

CITY           SKY/WX    TMP DP  RH WIND       PRES   REMARKS
CRAWFORDSVL +  CLOUDY    65  56  73 S6        30.04F
GREENCASTLE +  CLOUDY    63  59  88 SE3       30.05F
LAFAYETTE      CLOUDY    65  55  70 CALM      30.02F
TERRE HAUTE    CLOUDY    65  57  75 CALM      30.04S

$$

INZ030>032-037>040-046>048-054>057-064-065-250900-
CENTRAL INDIANA

CITY           SKY/WX    TMP DP  RH WIND       PRES   REMARKS
CP ATTERBURY + CLOUDY    61  59  94 E3        30.08S
FRANKFORT +      N/A     64  47  54 CALM      30.06F
GREENWOOD *+   CLOUDY    66  57  72 CALM      30.07S
INDIANAPOLIS   CLOUDY    67  56  67 SE5       30.05R
-EAGLE CREEK   CLOUDY    67  57  70 CALM      30.05S
KOKOMO *+      CLOUDY    63  54  72 S3        30.06S
MARION +       CLOUDY    62  54  75 S5        30.08R
SHELBYVILLE    CLOUDY    66  56  70 SE6       30.06S
ZIONSVILLE +   CLOUDY    62  58  86 CALM      30.07S

$$

INZ033-034-041-042-049-050-058-059-250900-
EAST CENTRAL INDIANA

CITY           SKY/WX    TMP DP  RH WIND       PRES   REMARKS
MUNCIE         MOCLDY    66  53  63 S6        30.08R

$$

INZ060-061-067>069-081>083-085>088-250900-
SOUTHWEST INDIANA

CITY           SKY/WX    TMP DP  RH WIND       PRES   REMARKS
EVANSVILLE     CLEAR     63  59  87 CALM      30.05S
HUNTINGBURG *+ PTCLDY    63  55  77 SE3       30.06S
WASHINGTON +   PTCLDY    64  61  92 S6        30.04S

$$

INZ062-063-066-070>080-084-089>092-250900-
SOUTH CENTRAL AND SOUTHEAST INDIANA

CITY           SKY/WX    TMP DP  RH WIND       PRES   REMARKS
BEDFORD +      CLOUDY    66  63  88 CALM      30.06S
BLOOMINGTON    CLOUDY    67  57  70 S5        30.06S
MADISON *+     CLOUDY    63  55  77 CALM      30.10S
NORTH VERNON + CLOUDY    64  64 100 CALM      30.08S
SEYMOUR +      CLOUDY    68  59  73 SE7       30.06

$$




USA.gov is the U.S. government's official web portal to all federal, state and local government web resources and services.